SCP
0 0 0 0 0 0 0 0 0 0 0 0 0 0 0 0 0 0 0 0 0 0 0 0 0 0 0 0 0 0 0 0 0 0 0 0 0 0 0 0 0 0 0
0 0 0 0 0 0 0 0 0 0 0 0 0 0 0 0 0 0 0 0 0 0 0 0 0 0 0 0 0 0 0 0 0 0 0 0 0 0 0 0 0 0 0
0 0 0 0 0 0 0 0 0 0 0 0 0 0 0 0 0 0 0 0 0 0 0 0 0 0 0 0 0 0 0 0 0 0 0 0 0 0 0 0 0 0 0
0 0 0 0 0 0 0 0 0 0 0 0 0 0 0 0 0 0 0 0 0 0 0 0 0 0 0 0 0 0 0 0 0 0 0 0 0 0 0 0 0 0 0
0 0 0 0 0 0 0 0 0 0 0 0 0 0 0 0 0 0 0 0 0 0 0 0 0 0 0 0 0 0 0 0 0 0 0 0 0 0 0 0 0 0 0
0 0 0 0 0 0 0 0 0 0 0 0 0 0 0 0 0 0 0 0 0 0 0 0 0 0 0 0 0 0 0 0 0 0 0 0 0 0 0 0 0 0 0
0 0 0 0 0 0 0 0 0 0 0 0 0 0 0 0 0 0 0 0 0 0 0 0 0 0 0 0 0 0 0 0 0 0 0 0 1 1 1 0 0 0 0
1 1 1 1 1 0 1 1 1 1 1 1 1 1 1 0 0 0 0 0 0 0 0 0 0 0 0 0 0 0 0 0 0 0 0 1 1 2 1 1 1 0 0
1 1 1 1 1 1 1 1 1 1 1 1 1 1 1 1 1 1 1 1 1 1 1 1 1 1 1 1 1 1 1 1 0 0 0 1 2 2 2 1 1 1 1
1 1 1 1 1 1 1 1 1 1 1 1 1 1 1 1 1 1 1 1 1 1 1 1 1 1 1 1 1 1 2 1 1 0 0 1 2 3 2 2 1 1 1
2 1 1 2 2 2 1 2 2 2 2 2 1 1 1 1 1 1 1 1 1 1 1 1 1 1 1 1 1 2 2 1 1 0 1 2 3 3 3 2 2 1 1
2 2 2 2 3 2 2 3 3 2 2 2 2 2 2 2 1 2 2 2 2 2 2 2 2 2 2 2 2 2 2 1 1 1 2 3 4 4 3 2 2 2 1
1 2 2 3 3 3 3 4 3 3 3 3 3 3 3 3 2 2 3 3 3 3 3 3 3 3 2 3 3 2 2 2 1 2 3 4 4 4 3 2 2 2 2
2 2 2 3 4 4 4 4 4 4 3 3 5 5 5 3 3 3 3 3 3 3 4 4 4 3 3 3 3 2 2 2 2 2 3 4 4 4 3 3 2 2 2
3 3 4 6 7 6 6 5 5 5 4 4 6 7 5 3 3 3 3 3 3 3 3 3 3 3 3 3 2 2 2 2 2 3 3 4 4 4 4 3 3 2 2
6 6 7 9 9 8 7 6 6 6 5 4 5 6 5 3 3 3 2 3 2 2 2 2 2 2 2 2 1 1 1 2 2 2 3 3 3 4 4 3 3 3 3
9 9 10 10 10 9 8 7 6 5 5 4 4 4 3 3 3 2 2 2 2 2 2 2 2 2 1 1 1 1 1 1 1 2 2 3 3 3 3 3 3 3 3
13 13 12 10 10 9 8 6 5 5 5 5 4 3 3 3 2 2 2 2 1 2 2 2 2 1 1 1 1 1 1 1 1 2 2 2 2 2 2 3 3 3 3
16 15 13 11 10 9 7 5 5 5 5 4 3 3 2 2 2 2 2 2 1 1 2 2 2 1 1 1 1 1 1 1 2 2 2 2 2 2 3 3 3 3 3
14 14 13 11 9 7 6 5 4 4 4 3 2 2 2 1 1 1 1 1 1 1 1 1 1 1 1 1 1 1 1 1 1 2 2 2 2 3 3 3 3 3 3
11 11 10 9 8 6 5 4 3 3 2 2 2 2 1 1 1 1 1 1 1 1 1 1 1 1 1 1 1 1 1 1 1 2 2 3 3 3 3 3 3 4 3
9 8 8 8 7 6 4 3 3 2 2 1 1 2 1 1 1 1 1 1 1 0 0 0 1 1 0 0 0 0 0 1 1 1 2 3 3 3 3 3 3 3 3
8 7 7 7 7 5 4 3 2 2 2 1 2 2 2 2 2 2 2 1 1 0 0 0 0 1 1 0 0 0 0 0 1 1 2 2 3 3 3 3 3 3 3
8 8 9 8 7 5 4 3 3 2 2 2 2 3 3 3 2 2 2 2 1 1 0 0 0 1 1 1 0 0 0 0 0 1 1 2 2 3 3 3 3 2 2
9 10 11 10 8 6 5 5 4 4 3 3 3 3 4 4 3 3 2 2 2 1 1 1 0 1 1 1 1 0 0 0 0 0 1 1 1 2 2 2 2 2 2
9 9 10 10 8 7 6 6 6 5 4 3 4 4 4 4 3 3 3 3 2 1 1 1 1 1 1 1 1 1 0 0 0 0 1 1 1 1 2 2 2 2 2
Wind_Speed
18 18 18 15 14 15 16 15 15 15 14 12 11 10 9 8 8 8 8 8 8 9 9 8 8 9 9 9 8 8 8 8 7 7 8 9 8 8 7 6 4 9 11
20 18 17 15 14 14 15 15 15 14 13 13 12 10 9 8 8 7 7 7 8 8 9 8 8 8 9 9 8 7 6 5 4 3 5 7 8 7 6 4 4 8 10
20 18 17 14 14 14 14 14 15 14 14 13 12 10 9 9 8 7 7 7 7 7 7 7 6 6 7 7 6 5 4 3 0 2 5 6 8 9 6 5 9 10 8
20 17 16 16 14 14 14 14 14 14 13 12 11 11 10 9 8 6 6 6 6 6 6 5 5 5 5 6 5 3 2 1 3 6 7 5 7 12 10 7 7 7 7
18 16 17 17 15 14 14 13 13 13 12 12 11 11 10 9 8 7 6 6 6 5 5 4 4 5 5 5 5 4 2 1 4 8 9 3 6 12 12 9 7 6 6
18 17 18 17 16 15 14 14 13 12 12 11 10 10 10 9 8 8 7 7 6 5 5 4 5 5 5 6 6 5 5 5 6 8 9 3 9 11 12 10 8 8 7
18 18 17 17 15 14 13 13 13 13 12 12 11 10 9 9 8 8 8 7 7 7 7 7 6 7 8 8 7 7 7 7 8 8 7 2 9 14 12 10 8 8 9
18 18 16 17 15 14 14 13 13 13 12 12 12 11 10 10 9 9 9 9 9 8 8 7 7 7 7 8 9 9 10 11 10 10 8 4 14 16 14 11 9 7 8
19 18 15 15 14 15 15 15 14 14 14 13 13 12 12 12 11 11 11 11 11 11 11 10 10 10 9 9 10 10 12 13 10 7 9 4 16 18 17 15 13 11 10
18 17 15 15 13 12 12 14 13 13 13 12 12 12 12 12 12 13 13 13 14 13 13 13 13 13 12 12 12 13 14 13 11 11 8 6 18 18 17 16 15 14 13
14 16 16 16 14 14 14 15 14 14 13 12 12 14 12 10 12 13 16 16 17 16 15 15 15 15 13 14 16 16 14 8 11 10 7 9 18 19 17 16 15 15 15
11 14 12 15 15 14 12 12 10 11 11 11 10 12 10 9 8 9 11 18 18 17 17 17 17 15 12 9 11 16 8 11 12 7 4 13 19 19 18 16 16 15 15
13 10 11 12 14 12 7 10 8 7 8 12 12 9 8 7 5 6 3 5 8 12 10 11 12 9 8 6 5 6 9 9 7 5 5 15 17 18 18 18 17 17 16
15 12 12 9 9 6 6 6 6 5 5 6 8 9 7 4 4 4 3 3 5 4 5 5 4 8 8 6 6 6 6 6 5 3 4 15 16 17 17 18 17 17 17
15 14 12 8 6 4 2 1 4 3 4 4 2 4 4 3 3 4 2 2 3 3 1 1 1 3 3 4 5 6 6 6 5 5 2 12 16 16 17 17 17 18 17
13 13 10 10 8 5 4 2 0 0 0 2 1 1 2 2 3 3 3 3 4 3 2 2 4 4 4 4 5 5 5 6 5 6 6 7 15 17 17 17 17 17 18
13 11 11 10 10 7 5 5 4 5 5 3 2 2 2 3 3 3 3 4 4 3 3 3 4 4 5 5 5 6 6 8 9 9 8 6 7 15 19 19 18 17 18
14 13 11 10 11 9 6 5 5 5 4 3 3 4 4 3 3 3 3 3 3 3 3 4 4 5 5 5 5 6 6 6 9 10 9 7 6 7 14 20 19 17 18
10 13 8 6 9 9 8 6 5 3 3 2 3 2 3 1 2 2 3 3 4 3 4 5 4 4 5 5 6 6 6 6 7 9 9 10 8 7 6 11 18 18 19
9 11 7 5 6 8 8 4 2 3 4 4 3 4 3 2 1 0 2 2 2 2 3 2 3 4 5 5 8 8 6 6 6 7 8 8 8 10 9 8 8 12 18
8 10 7 6 4 3 3 4 3 3 2 2 3 6 2 3 1 0 3 3 4 3 4 5 5 6 5 5 6 7 7 9 9 8 8 8 8 9 10 9 7 6 7
8 6 5 6 5 5 4 3 2 2 1 0 1 4 4 3 2 3 2 3 4 4 4 5 5 4 5 5 5 7 7 6 6 7 7 7 7 6 7 9 8 7 6
8 6 4 5 6 4 7 4 3 2 2 3 4 4 5 4 2 1 2 3 4 4 4 4 5 6 5 5 5 5 5 5 6 5 5 3 3 3 4 5 8 9 9
7 6 6 2 4 4 4 4 5 4 3 2 2 2 3 3 3 2 2 3 3 3 5 6 5 4 5 5 5 5 7 8 8 7 6 5 4 4 5 5 6 8 9
16 15 16 13 8 5 3 4 2 2 3 3 2 4 4 4 5 5 5 3 3 4 5 5 5 5 4 5 6 6 7 8 8 7 7 5 4 4 5 6 6 5 7
14 15 14 12 14 15 14 11 8 7 7 7 5 4 3 4 5 7 6 4 3 4 4 4 5 7 5 6 6 6 7 7 7 6 7 6 5 6 6 6 6 5 5
Wind_Direction
120 126 125 119 116 119 127 134 136 131 131 133 131 127 122 115 107 101 97 91 93 113 121 114 97 98 94 85 91 83 72 67 65 70 87 90 89 89 92 99 131 110 111
122 125 126 123 121 123 129 135 139 137 138 138 136 134 128 120 113 106 103 100 95 95 100 101 94 88 95 93 90 93 86 78 76 95 128 130 119 106 94 72 32 113 125
123 129 129 128 128 127 130 136 141 144 145 144 142 138 132 127 126 122 114 108 106 104 102 103 103 98 96 98 102 109 111 109 173 215 211 189 142 132 114 92 102 120 127
129 138 138 137 136 134 134 139 144 148 150 149 147 143 143 144 143 139 129 122 120 119 118 119 121 121 120 118 120 119 109 137 247 260 245 222 157 141 134 126 129 140 141
134 138 136 146 145 144 143 145 149 152 154 155 153 153 157 159 158 158 157 153 150 147 145 145 148 149 148 146 146 150 162 236 268 269 267 233 137 145 144 147 154 160 160
135 136 144 152 152 153 154 156 158 159 160 162 164 166 170 171 172 173 177 178 178 177 178 182 192 193 186 179 179 187 197 221 252 254 255 204 129 149 152 158 170 177 185
143 136 147 153 158 162 164 166 166 167 168 171 174 179 184 185 187 191 195 199 200 201 202 207 214 213 209 207 205 209 217 229 248 270 275 200 138 151 161 171 190 192 190
137 133 144 154 162 168 172 174 176 177 178 182 185 190 196 200 204 209 213 215 218 220 221 224 229 229 219 218 218 220 226 238 242 245 257 225 148 160 169 180 197 209 202
138 135 150 160 168 175 180 181 183 185 188 193 197 202 206 210 214 219 222 224 226 224 224 224 227 230 230 232 233 229 228 231 250 262 256 223 163 171 178 185 195 206 216
138 143 155 164 167 176 183 188 190 195 199 204 209 214 218 222 226 230 230 227 230 228 226 228 228 228 229 232 233 232 231 232 238 251 248 215 172 178 184 190 196 203 214
146 148 165 168 167 179 183 182 187 196 204 208 214 219 223 229 227 225 228 226 223 226 228 229 229 230 232 235 235 232 228 230 236 238 237 188 174 182 189 194 201 209 214
164 161 167 166 168 187 190 165 183 193 196 207 214 206 211 226 244 254 219 220 223 228 228 229 230 232 232 240 235 229 224 227 243 242 205 170 177 184 189 195 202 211 217
176 178 167 172 169 188 186 160 183 195 188 198 219 208 204 220 239 268 245 213 223 230 231 230 230 231 231 222 239 227 212 224 231 236 195 175 181 186 190 197 204 213 220
173 179 178 182 164 186 174 174 173 189 185 199 202 207 209 214 232 249 249 218 214 225 233 259 227 218 227 228 237 257 243 229 231 223 195 180 186 192 196 202 208 216 222
167 176 177 154 148 148 145 181 181 194 213 220 191 172 203 212 240 269 282 279 273 272 221 200 264 271 267 269 268 273 284 289 300 298 261 195 195 200 205 211 214 220 222
165 170 155 151 148 150 156 179 53 239 248 303 340 182 186 195 219 246 265 264 260 279 290 256 246 244 246 248 256 267 277 279 269 255 249 233 210 206 208 211 216 223 223
166 157 145 160 153 159 171 191 193 206 203 210 228 254 223 214 228 240 253 260 266 271 262 253 248 249 258 260 252 244 247 252 254 254 245 236 224 214 211 211 213 218 223
164 152 155 170 153 164 181 205 222 208 168 172 177 202 205 201 213 237 250 250 246 241 236 243 245 251 254 259 258 245 237 236 242 244 245 238 234 238 219 214 214 215 221
152 140 145 139 153 170 183 198 222 127 131 203 195 169 118 236 225 217 234 226 222 221 220 234 225 234 257 263 266 258 243 239 241 244 241 237 226 222 232 210 211 215 219
115 120 136 166 185 172 171 176 202 169 183 191 144 108 86 292 255 53 301 292 279 284 269 257 271 247 249 259 270 273 265 259 249 242 243 239 224 219 220 221 212 220 220
110 121 151 178 162 163 153 166 178 165 169 153 147 125 154 241 288 59 284 335 322 298 323 328 312 300 291 279 276 274 257 251 245 234 232 233 225 215 215 211 215 219 216
110 115 128 130 156 186 128 105 95 67 297 152 108 153 188 225 249 286 342 339 313 327 306 279 278 278 286 293 295 296 290 276 256 247 234 224 226 221 213 205 207 214 216
123 140 148 142 166 185 144 161 147 161 233 221 206 197 191 196 214 290 340 312 313 304 300 326 306 287 286 291 285 287 297 295 308 306 322 304 237 224 225 218 208 211 214
56 62 62 63 195 176 175 218 187 189 216 220 196 198 150 178 212 204 227 259 274 290 298 286 289 322 308 294 285 276 275 285 291 292 290 279 254 235 229 234 227 211 204
40 44 41 10 353 344 285 292 303 254 249 244 206 186 170 211 212 205 203 212 248 266 271 288 307 294 287 287 292 298 300 297 287 277 280 278 277 248 225 217 221 214 201
37 41 46 30 21 12 5 356 344 322 317 316 313 291 223 218 202 197 188 186 228 261 288 301 294 289 280 277 279 280 282 285 287 283 277 270 267 264 236 213 208 210 197